| time (UTC) | temp F | wind direction | speed MPH | gust MPH | rain 1hr in | rain 24hr in | rain mn in | humidity % | barometer mb |
| 20260904210017 | 67 | 0 | 2.0 | 5.0 | 0.00 | 0.00 | 0.00 | 63 | 1011.3 |
| 20260904205017 | 67 | 315 | 2.0 | 6.0 | 0.00 | 0.00 | 0.00 | 65 | 1011.2 |
| 20260904204018 | 66 | 315 | 3.0 | 9.0 | 0.00 | 0.00 | 0.00 | 65 | 1011.2 |
| 20260904203018 | 65 | 293 | 2.0 | 5.0 | 0.00 | 0.00 | 0.00 | 67 | 1011.1 |
| 20260904202017 | 65 | 315 | 3.0 | 6.0 | 0.00 | 0.00 | 0.00 | 68 | 1011.3 |
| 20260904201018 | 64 | 315 | 3.0 | 5.0 | 0.00 | 0.00 | 0.00 | 69 | 1011.3 |
| 20260904200017 | 64 | 315 | 3.0 | 8.0 | 0.00 | 0.00 | 0.00 | 68 | 1011.4 |
| 20260904195017 | 64 | 315 | 3.0 | 7.0 | 0.00 | 0.00 | 0.00 | 64 | 1011.6 |
| 20260904194018 | 65 | 338 | 1.0 | 5.0 | 0.00 | 0.00 | 0.00 | 63 | 1011.0 |
| 20260904193018 | 65 | 315 | 4.0 | 10.0 | 0.00 | 0.00 | 0.00 | 62 | 1011.6 |
| 20260904192017 | 65 | 315 | 5.0 | 9.0 | 0.00 | 0.00 | 0.00 | 64 | 1011.8 |
| 20260904191017 | 65 | 0 | 4.0 | 9.0 | 0.00 | 0.00 | 0.00 | 66 | 1011.1 |
| 20260904190017 | 65 | 293 | 4.0 | 8.0 | 0.00 | 0.00 | 0.00 | 62 | 1011.7 |
| 20260904185017 | 65 | 293 | 5.0 | 11.0 | 0.00 | 0.00 | 0.00 | 61 | 1012.1 |
| 20260904184017 | 64 | 0 | 3.0 | 9.0 | 0.00 | 0.00 | 0.00 | 60 | 1011.8 |
| 20260904183017 | 63 | 315 | 2.0 | 5.0 | 0.00 | 0.00 | 0.00 | 62 | 1012.0 |
| 20260904182017 | 61 | 338 | 2.0 | 8.0 | 0.00 | 0.00 | 0.00 | 65 | 1011.9 |
| 20260904181017 | 59 | 338 | 1.0 | 5.0 | 0.00 | 0.00 | 0.00 | 68 | 1012.4 |
| 20260904180017 | 59 | 0.0 | 2.0 | 0.00 | 0.00 | 0.00 | 70 | 1012.7 | |
| 20260904175017 | 58 | 0.0 | 2.0 | 0.00 | 0.00 | 0.00 | 72 | 1013.0 | |
| 20260904174017 | 57 | 23 | 1.0 | 2.0 | 0.00 | 0.00 | 0.00 | 74 | 1012.9 |
| 20260904173017 | 57 | 0.0 | 1.0 | 0.00 | 0.00 | 0.00 | 77 | 1012.8 | |
| 20260904172017 | 57 | 0.0 | 2.0 | 0.00 | 0.00 | 0.00 | 77 | 1013.3 | |
| 20260904171017 | 57 | 23 | 1.0 | 2.0 | 0.00 | 0.00 | 0.00 | 78 | 1013.7 |
| 20260904170017 | 57 | 0.0 | 2.0 | 0.00 | 0.00 | 0.00 | 78 | 1013.9 | |
| 20260904165017 | 57 | 23 | 1.0 | 2.0 | 0.00 | 0.00 | 0.00 | 78 | 1014.3 |
| 20260904164017 | 57 | 0.0 | 2.0 | 0.00 | 0.00 | 0.00 | 79 | 1014.8 | |
| 20260904163017 | 56 | 0.0 | 2.0 | 0.00 | 0.00 | 0.00 | 79 | 1015.1 | |
| 20260904162017 | 56 | 0.0 | 2.0 | 0.00 | 0.00 | 0.00 | 78 | 1015.4 | |
| 20260904161017 | 56 | 0.0 | 2.0 | 0.00 | 0.00 | 0.00 | 79 | 1015.4 | |
| 20260904160017 | 56 | 23 | 1.0 | 2.0 | 0.00 | 0.00 | 0.00 | 81 | 1015.5 |
| 20260904155017 | 56 | 0.0 | 2.0 | 0.00 | 0.00 | 0.00 | 81 | 1015.5 | |
| 20260904154017 | 56 | 0.0 | 1.0 | 0.00 | 0.00 | 0.00 | 80 | 1015.7 | |
| 20260904153017 | 56 | 0.0 | 2.0 | 0.00 | 0.00 | 0.00 | 81 | 1015.8 | |
| 20260904152017 | 56 | 0.0 | 2.0 | 0.00 | 0.00 | 0.00 | 81 | 1015.9 | |
| 20260904151019 | 56 | 23 | 1.0 | 2.0 | 0.00 | 0.00 | 0.00 | 82 | 1015.8 |
| 20260904150018 | 56 | 23 | 1.0 | 2.0 | 0.00 | 0.00 | 0.00 | 81 | 1015.9 |
| 20260904145018 | 56 | 23 | 1.0 | 1.0 | 0.00 | 0.00 | 0.00 | 80 | 1016.1 |
| 20260904144019 | 56 | 0.0 | 2.0 | 0.00 | 0.00 | 0.00 | 79 | 1016.2 | |
| 20260904143019 | 56 | 0.0 | 2.0 | 0.00 | 0.00 | 0.00 | 79 | 1016.3 | |
| 20260904142019 | 56 | 0.0 | 2.0 | 0.00 | 0.00 | 0.00 | 81 | 1016.3 | |
| 20260904141018 | 56 | 0.0 | 1.0 | 0.00 | 0.00 | 0.00 | 81 | 1016.4 | |
| 20260904140028 | 56 | 0.0 | 2.0 | 0.00 | 0.00 | 0.00 | 82 | 1016.3 | |
| 20260904135018 | 56 | 0.0 | 0.0 | 0.00 | 0.00 | 0.00 | 81 | 1016.4 | |
| 20260904134018 | 56 | 0.0 | 0.0 | 0.00 | 0.00 | 0.00 | 80 | 1016.6 | |
| 20260904133018 | 57 | 0.0 | 1.0 | 0.00 | 0.00 | 0.00 | 80 | 1016.5 | |
| 20260904132018 | 57 | 0.0 | 2.0 | 0.00 | 0.00 | 0.00 | 80 | 1016.6 | |
| 20260904131018 | 57 | 0.0 | 2.0 | 0.00 | 0.00 | 0.00 | 79 | 1016.8 | |
| 20260904130018 | 58 | 0.0 | 1.0 | 0.00 | 0.00 | 0.00 | 79 | 1016.9 | |
| 20260904125018 | 58 | 0.0 | 2.0 | 0.00 | 0.00 | 0.00 | 79 | 1016.8 | |
| 20260904124018 | 58 | 0.0 | 2.0 | 0.00 | 0.00 | 0.00 | 78 | 1016.9 | |
| 20260904123018 | 59 | 0.0 | 1.0 | 0.00 | 0.00 | 0.00 | 78 | 1017.0 | |
| 20260904122018 | 59 | 0.0 | 2.0 | 0.00 | 0.00 | 0.00 | 78 | 1017.1 | |
| 20260904121018 | 59 | 0.0 | 0.0 | 0.00 | 0.00 | 0.00 | 78 | 1017.4 | |
| 20260904120018 | 59 | 0.0 | 2.0 | 0.00 | 0.00 | 0.00 | 76 | 1017.4 | |
| 20260904115018 | 60 | 0.0 | 2.0 | 0.00 | 0.00 | 0.00 | 75 | 1017.5 | |
| 20260904114018 | 60 | 0.0 | 2.0 | 0.00 | 0.00 | 0.00 | 75 | 1017.9 | |
| 20260904113018 | 60 | 0.0 | 1.0 | 0.00 | 0.00 | 0.00 | 72 | 1018.0 | |
| 20260904112018 | 60 | 0.0 | 2.0 | 0.00 | 0.00 | 0.00 | 70 | 1017.8 | |
| 20260904111018 | 61 | 0.0 | 2.0 | 0.00 | 0.00 | 0.00 | 70 | 1018.0 | |
| 20260904110018 | 62 | 0.0 | 2.0 | 0.00 | 0.00 | 0.00 | 68 | 1018.1 | |
| 20260904105018 | 62 | 0.0 | 2.0 | 0.00 | 0.00 | 0.00 | 64 | 1018.3 | |
| 20260904104018 | 62 | 0.0 | 2.0 | 0.00 | 0.00 | 0.00 | 62 | 1018.2 | |
| 20260904103018 | 63 | 0.0 | 2.0 | 0.00 | 0.00 | 0.00 | 61 | 1018.2 | |
| 20260904102018 | 63 | 315 | 1.0 | 1.0 | 0.00 | 0.00 | 0.00 | 60 | 1018.2 |
| 20260904101018 | 63 | 0.0 | 2.0 | 0.00 | 0.00 | 0.00 | 59 | 1018.1 | |
| 20260904100018 | 63 | 0.0 | 2.0 | 0.00 | 0.00 | 0.00 | 60 | 1018.0 | |
| 20260904095018 | 63 | 293 | 1.0 | 2.0 | 0.00 | 0.00 | 0.00 | 60 | 1018.2 |
| 20260904094018 | 63 | 293 | 2.0 | 3.0 | 0.00 | 0.00 | 0.00 | 61 | 1018.1 |
| 20260904093018 | 63 | 315 | 1.0 | 3.0 | 0.00 | 0.00 | 0.00 | 63 | 1017.9 |
| 20260904092018 | 63 | 0.0 | 1.0 | 0.00 | 0.00 | 0.00 | 64 | 1017.8 | |
| 20260904091018 | 64 | 0.0 | 2.0 | 0.00 | 0.00 | 0.00 | 64 | 1017.6 | |
| 20260904090018 | 64 | 0.0 | 2.0 | 0.00 | 0.00 | 0.00 | 64 | 1017.5 | |
| 20260904085018 | 64 | 0.0 | 2.0 | 0.00 | 0.00 | 0.00 | 63 | 1017.2 | |
| 20260904084018 | 64 | 45 | 1.0 | 3.0 | 0.00 | 0.00 | 0.00 | 63 | 1017.0 |
| 20260904083018 | 65 | 338 | 1.0 | 2.0 | 0.00 | 0.00 | 0.00 | 63 | 1017.3 |
| 20260904082017 | 66 | 0.0 | 1.0 | 0.00 | 0.00 | 0.00 | 61 | 1017.7 | |
| 20260904081018 | 67 | 0.0 | 0.0 | 0.00 | 0.00 | 0.00 | 60 | 1017.9 | |
| 20260904080018 | 68 | 0.0 | 2.0 | 0.00 | 0.00 | 0.00 | 58 | 1018.1 | |
| 20260904075017 | 68 | 0.0 | 2.0 | 0.00 | 0.00 | 0.00 | 55 | 1017.9 | |
| 20260904074017 | 69 | 0.0 | 0.0 | 0.00 | 0.00 | 0.00 | 51 | 1018.1 | |
| 20260904073017 | 69 | 0.0 | 2.0 | 0.00 | 0.00 | 0.00 | 49 | 1018.1 | |
| 20260904072018 | 69 | 293 | 1.0 | 3.0 | 0.00 | 0.00 | 0.00 | 48 | 1018.3 |
| 20260904071017 | 69 | 315 | 2.0 | 4.0 | 0.00 | 0.00 | 0.00 | 48 | 1018.3 |
| 20260904070017 | 70 | 293 | 2.0 | 5.0 | 0.00 | 0.00 | 0.00 | 48 | 1018.4 |
| 20260904065017 | 70 | 293 | 2.0 | 3.0 | 0.00 | 0.00 | 0.00 | 47 | 1018.5 |
| 20260904064017 | 70 | 293 | 4.0 | 8.0 | 0.00 | 0.00 | 0.00 | 46 | 1018.5 |
| 20260904063017 | 70 | 293 | 4.0 | 7.0 | 0.00 | 0.00 | 0.00 | 46 | 1018.8 |
| 20260904062017 | 70 | 293 | 4.0 | 8.0 | 0.00 | 0.00 | 0.00 | 46 | 1018.8 |
| 20260904061017 | 71 | 293 | 3.0 | 9.0 | 0.00 | 0.00 | 0.00 | 46 | 1018.7 |
| 20260904060017 | 71 | 293 | 4.0 | 9.0 | 0.00 | 0.00 | 0.00 | 45 | 1018.7 |
| 20260904055017 | 71 | 315 | 2.0 | 4.0 | 0.00 | 0.00 | 0.00 | 47 | 1018.7 |
| 20260904054017 | 71 | 315 | 3.0 | 7.0 | 0.00 | 0.00 | 0.00 | 47 | 1018.6 |
| 20260904053017 | 71 | 293 | 4.0 | 12.0 | 0.00 | 0.00 | 0.00 | 47 | 1018.8 |
| 20260904052017 | 71 | 293 | 1.0 | 3.0 | 0.00 | 0.00 | 0.00 | 47 | 1018.7 |
| 20260904051017 | 72 | 293 | 4.0 | 10.0 | 0.00 | 0.00 | 0.00 | 46 | 1018.6 |
| 20260904050017 | 72 | 293 | 2.0 | 3.0 | 0.00 | 0.00 | 0.00 | 45 | 1018.6 |
| 20260904045017 | 72 | 0 | 2.0 | 6.0 | 0.00 | 0.00 | 0.00 | 47 | 1018.6 |
| 20260904044017 | 72 | 270 | 2.0 | 6.0 | 0.00 | 0.00 | 0.00 | 46 | 1018.5 |
| 20260904043017 | 73 | 315 | 3.0 | 7.0 | 0.00 | 0.00 | 0.00 | 46 | 1018.5 |
| 20260904042017 | 72 | 315 | 3.0 | 8.0 | 0.00 | 0.00 | 0.00 | 46 | 1018.6 |
| 20260904041017 | 71 | 315 | 2.0 | 6.0 | 0.00 | 0.00 | 0.00 | 49 | 1018.7 |
| 20260904040017 | 71 | 293 | 2.0 | 7.0 | 0.00 | 0.00 | 0.00 | 47 | 1018.8 |
| 20260904035017 | 72 | 315 | 2.0 | 5.0 | 0.00 | 0.00 | 0.00 | 46 | 1018.8 |
| 20260904034017 | 71 | 0 | 1.0 | 3.0 | 0.00 | 0.00 | 0.00 | 49 | 1018.9 |
| 20260904033017 | 71 | 293 | 2.0 | 5.0 | 0.00 | 0.00 | 0.00 | 49 | 1019.0 |
| 20260904032017 | 70 | 270 | 2.0 | 7.0 | 0.00 | 0.00 | 0.00 | 49 | 1019.3 |
| 20260904031017 | 70 | 315 | 3.0 | 6.0 | 0.00 | 0.00 | 0.00 | 50 | 1019.5 |
| 20260904030019 | 70 | 338 | 1.0 | 4.0 | 0.00 | 0.00 | 0.00 | 50 | 1019.5 |
| 20260904025019 | 70 | 0 | 2.0 | 5.0 | 0.00 | 0.00 | 0.00 | 51 | 1019.9 |
| 20260904024019 | 69 | 293 | 2.0 | 7.0 | 0.00 | 0.00 | 0.00 | 52 | 1020.0 |
| 20260904023019 | 70 | 293 | 2.0 | 6.0 | 0.00 | 0.00 | 0.00 | 51 | 1020.1 |
| 20260904022019 | 70 | 248 | 3.0 | 8.0 | 0.00 | 0.00 | 0.00 | 50 | 1020.6 |
| 20260904021019 | 70 | 338 | 2.0 | 11.0 | 0.00 | 0.00 | 0.00 | 52 | 1020.5 |
| 20260904020019 | 70 | 293 | 2.0 | 7.0 | 0.00 | 0.00 | 0.00 | 52 | 1020.4 |
| 20260904015019 | 69 | 315 | 1.0 | 4.0 | 0.00 | 0.00 | 0.00 | 53 | 1020.6 |
| 20260904014019 | 69 | 315 | 3.0 | 8.0 | 0.00 | 0.00 | 0.00 | 53 | 1021.1 |
| 20260904013019 | 68 | 270 | 3.0 | 9.0 | 0.00 | 0.00 | 0.00 | 55 | 1021.1 |
| 20260904012019 | 67 | 315 | 2.0 | 9.0 | 0.00 | 0.00 | 0.00 | 58 | 1021.4 |
| 20260904011018 | 66 | 338 | 2.0 | 8.0 | 0.00 | 0.00 | 0.00 | 59 | 1021.5 |
| 20260904010018 | 66 | 315 | 2.0 | 4.0 | 0.00 | 0.00 | 0.00 | 59 | 1021.6 |
| 20260904005018 | 66 | 315 | 1.0 | 4.0 | 0.00 | 0.00 | 0.00 | 61 | 1022.0 |
| 20260904004018 | 65 | 315 | 2.0 | 4.0 | 0.00 | 0.00 | 0.00 | 61 | 1022.2 |
| 20260904003019 | 64 | 293 | 1.0 | 3.0 | 0.00 | 0.00 | 0.00 | 64 | 1022.3 |
| 20260904002018 | 64 | 293 | 3.0 | 5.0 | 0.00 | 0.00 | 0.00 | 64 | 1022.3 |
| 20260904001018 | 63 | 293 | 2.0 | 6.0 | 0.00 | 0.00 | 0.00 | 66 | 1022.6 |
| 20260904000019 | 62 | 270 | 3.0 | 7.0 | 0.00 | 0.00 | 0.00 | 66 | 1022.8 |
| 20260903235018 | 62 | 270 | 2.0 | 4.0 | 0.00 | 0.00 | 0.00 | 67 | 1022.8 |
| 20260903234018 | 61 | 293 | 2.0 | 4.0 | 0.00 | 0.00 | 0.00 | 68 | 1022.8 |
| 20260903233018 | 61 | 270 | 2.0 | 7.0 | 0.00 | 0.00 | 0.00 | 68 | 1023.0 |
| 20260903232018 | 60 | 293 | 2.0 | 5.0 | 0.00 | 0.00 | 0.00 | 69 | 1023.1 |
| 20260903231018 | 59 | 315 | 3.0 | 5.0 | 0.00 | 0.00 | 0.00 | 70 | 1023.2 |
| 20260903230029 | 58 | 315 | 2.0 | 4.0 | 0.00 | 0.00 | 0.00 | 74 | 1023.0 |
| 20260903225018 | 57 | 338 | 1.0 | 2.0 | 0.00 | 0.00 | 0.00 | 77 | 1022.7 |
| 20260903224018 | 56 | 338 | 1.0 | 3.0 | 0.00 | 0.00 | 0.00 | 79 | 1022.9 |
| 20260903223018 | 54 | 293 | 2.0 | 4.0 | 0.00 | 0.00 | 0.00 | 81 | 1022.8 |
| 20260903222018 | 53 | 293 | 2.0 | 6.0 | 0.00 | 0.00 | 0.00 | 84 | 1022.7 |
| 20260903221018 | 51 | 293 | 2.0 | 5.0 | 0.00 | 0.00 | 0.00 | 89 | 1022.5 |
| 20260903220018 | 49 | 293 | 1.0 | 3.0 | 0.00 | 0.00 | 0.00 | 91 | 1022.4 |
| 20260903215018 | 48 | 0.0 | 2.0 | 0.00 | 0.00 | 0.00 | 93 | 1022.1 | |
| 20260903214018 | 46 | 0.0 | 2.0 | 0.00 | 0.00 | 0.00 | 92 | 1022.1 | |
| 20260903213018 | 45 | 0.0 | 2.0 | 0.00 | 0.00 | 0.00 | 92 | 1022.2 | |
| 20260903212018 | 44 | 0.0 | 0.0 | 0.00 | 0.00 | 0.00 | 91 | 1022.1 | |
| 20260903211018 | 44 | 0.0 | 2.0 | 0.00 | 0.00 | 0.00 | 90 | 1021.8 |